IRIDIUM 115

Last updated on Sun Jun 21 2026 00:03:14 GMT+0000 (Coordinated Universal Time)

1 42806U 17039D 26171.44645499 .00000260 00000+0 71235-4 0 9991 2 42806 86.4499 320.7270 0002005 92.4155 267.7275 14.43277662474739
UTC large
Height (km)
Speed (km/s)
/
Latitude / Longitude
Inclination (degrees)
Orbital Period (minutes)
Azimuth
Elevation
Range (km)
Doppler Factor

Next 0 passes for location: London (51.5072 / 0.1276)

No passes found over London.
IRIDIUM 115